Regional Weather Roundup
Issued by NWS

Home | Current Version | Previous Version | Text Only | Print | Product List | Glossary On
Versions: 1 2 3 4 5 6 7 8 9 10 11 12 13 14 15 16 17 18 19 20 21 22 23 24 25 26 27 28 29 30 31 32 33 34 35 36 37 38 39 40 41 42 43 44 45 46 47 48 49 50
000
ASUS46 KLOX 261002
RWRCA

SOUTHERN CALIFORNIA WEATHER ROUNDUP
NATIONAL WEATHER SERVICE OXNARD CALIFORNIA
300 AM PDT SUN OCT 26 2014

NOTE: "FAIR" INDICATES FEW OR NO CLOUDS BELOW 12,000 FEET WITH NO
SIGNIFICANT WEATHER AND/OR OBSTRUCTIONS TO VISIBILITY.

  -  STATIONS PRECEEDED BY AN ASTERISK (*) ARE NOT NWS OR FAA
     STATIONS AND ARE NOT SUBJECT TO NWS AND FAA QUALITY CONTROL.

CAZ041-042-087-261100-
LA AND ORANGE COUNTY COASTAL AREAS


CITY           SKY/WX    TMP DP  RH WIND       PRES   REMARKS
L.A. DOWNTOWN  CLEAR     62  57  83 CALM      29.99F
L.A. AIRPORT   CLEAR     61  59  93 E5        30.00S
LONG BEACH     CLEAR     62  59  90 CALM      29.99F

CITY           SKY/WX    TMP DP  RH WIND       PRES   REMARKS
AVALON           N/A     59 N/A N/A S2          N/A
FULLERTON      CLEAR     63  57  81 E3        29.99S
*GETTY CENTER    N/A     63  50  63 SE2         N/A
HAWTHORNE      CLEAR     64  60  87 CALM      29.99F
*LOS ALAMITOS  FOG       61  61 100 CALM      29.99F VSB 1
*REDONDO BEACH   N/A     64  60  88 CALM      29.98F
SANTA ANA      PTCLDY    67  60  78 E3        29.99F
STA MONICA APT CLEAR     62  51  67 CALM      30.00S
*STA MON PIER    N/A     63  53  70 CALM      29.99
*UCLA            N/A     61  50  67 CALM      29.97F

$$

CAZ547-548-048-261100-
LA COUNTY VALLEYS AND INLAND EMPIRE


CITY           SKY/WX    TMP DP  RH WIND       PRES   REMARKS
BURBANK        CLEAR     58  46  64 CALM      30.00F
VAN NUYS       CLEAR     59  53  80 NW3       30.00F

CITY           SKY/WX    TMP DP  RH WIND       PRES   REMARKS
CORONA AIRPORT MOSUNNY   50  46  85 CALM      30.01F
*CHATSWORTH      N/A     56  49  78 CALM      29.98S
CHINO          CLEAR     57  52  83 CALM      30.02S
MARCH AFB      CLEAR     52  41  66 CALM      30.02F
*NORTHRIDGE      N/A     55  46  71 NW1         N/A
ONTARIO        CLEAR     59  49  69 CALM      30.01S
*PASADENA        N/A     61  52  72 CALM        N/A
RIVERSIDE      CLEAR     60  50  69 CALM      30.01F
SAN BERNARDINO NOT AVBL
*WHITEMAN AP   NOT AVBL
*WOODLAND HILL   N/A     55  52  88 S1          N/A

$$

CAZ054-055-261100-
LA AND SAN BERNARDINO COUNTY MOUNTAINS


CITY           SKY/WX    TMP DP  RH WIND       PRES   REMARKS
*BIG BEAR AIRP SUNNY     45  37  76 SW6       30.19F
*CHILAO          N/A     54  33  45 SE13        N/A
MT WILSON NWS    N/A     52  32  46 SW8         N/A
SANDBERG       CLEAR     49  43  80 NW26      30.12F

$$

CAZ028-029-059-060-099-261100-
ANTELOPE VALLEY AND SURROUNDING AREAS


CITY           SKY/WX    TMP DP  RH WIND       PRES   REMARKS
LANCASTER      CLEAR     56  46  69 W16       30.05F
PALMDALE       CLEAR     57  41  55 W13       30.06S

CITY           SKY/WX    TMP DP  RH WIND       PRES   REMARKS
29 PALMS       MOCLDY    65  43  44 NW9       30.04F
BARSTOW/DAGGET CLEAR     63  39  41 W8        30.01S
BISHOP         CLEAR     37  13  37 NW5       30.00S WCI  33
CHINA LAKE     PTCLDY    63  33  32 S9        29.95S
EDWARDS AFB    PTCLDY    52  44  75 S8        30.03S
MOJAVE         FAIR      57  46  67 W25G40    30.05R
NEEDLES        PTCLDY    75  43  31 CALM      29.89S
VICTORVILLE    CLEAR     54  45  71 W6        30.06F

$$

CAZ039-040-261100-
VENTURA AND SANTA BARBARA COUNTY COAST


CITY           SKY/WX    TMP DP  RH WIND       PRES   REMARKS
CAMARILLO      CLEAR     55  52  89 CALM      29.99S
NWS OXNARD       N/A     56  53  88 CALM      29.99S
OXNARD AIRPORT CLEAR     58  52  80 NE3       30.00S
*POINT MUGU    CLEAR     59  55  87 N6        30.00S
SBA APT/GOLETA CLEAR     58  53  84 NW3       29.99F
*VENTURA         N/A     57  53  87 CALM      30.02S

$$

CAZ044-045-261100-
VENTURA COUNTY VALLEYS


CITY           SKY/WX    TMP DP  RH WIND       PRES   REMARKS
*SIMI VALLEY     N/A     53  47  80 CALM      29.97R
*OJAI            N/A     48  44  87 CALM      29.95F
*FILLMORE        N/A     50  46  87 CALM      29.91S

$$

CAZ053-261100-
VENTURA COUNTY MOUNTAINS


CITY           SKY/WX    TMP DP  RH WIND       PRES   REMARKS
*LOCKWOOD VLY    N/A     36  34  93 MISG        N/A
*ROSE VALLEY     N/A     34  28  80 MISG        N/A

$$

CAZ034-035-036-261100-
CENTRAL COAST AND SANTA YNEZ VALLEY


CITY           SKY/WX    TMP DP  RH WIND       PRES   REMARKS
SAN LUIS OBISP CLEAR     61  50  67 NW16      30.09S
SANTA MARIA    PTCLDY    59  53  80 NW8       30.08F

CITY           SKY/WX    TMP DP  RH WIND       PRES   REMARKS
*CAL POLY SLO    N/A     59  50  72 NW3         N/A
*LOMPOC        CLEAR     52  45  76 CALM      30.07F
*PISMO BEACH     N/A     63  51  63 N13       30.08F
*SANTA YNEZ    CLOUDY    59  52  77 N6        30.07F

$$

CAZ037-038-051-261100-
SAN LUIS OBISPO COUNTY INTERIOR AND CUYAMA VALLEY


CITY           SKY/WX    TMP DP  RH WIND       PRES   REMARKS
*CUYAMA          N/A     56  48  75 SE3       30.06S
PASO ROBLES    PTCLDY    53  48  83 NW6       30.12F

$$

CAZ032-033-061-261100-
SOUTHERN DESERTS


CITY           SKY/WX    TMP DP  RH WIND       PRES   REMARKS
BLYTHE         CLEAR     73  47  39 NW7       29.86F
IMPERIAL       CLEAR     72  50  45 NW6       29.85F
PALM SPRINGS   PTCLDY    73  49  42 S3        29.89F
THERMAL        MOCLDY    79  46  31 N13       29.83F

$$

ELSEWHERE ACROSS THE WESTERN UNITED STATES AND MEXICO


CITY           SKY/WX    TMP DP  RH WIND       PRES   REMARKS
DENVER, CO     PTCLDY    54  25  32 SW10      29.92F
GRAND CANYON,  CLEAR     35  32  88 CALM      30.19F
HONOLULU, HI   PTCLDY    78  70  76 E7        30.03S
KAHULUI, MAUI  CLEAR     76  68  76 NE12      30.03S
LAKE TAHOE, CA CLEAR     41  27  57 S15       30.15R WCI  33
LAS VEGAS, NV  MOCLDY    72  40  31 S13G18    29.88F
MAMMOTH LAKES, FAIR      39  23  52 SE3       30.12S
MEXICO CITY, M CLOUDY    48  43  81 NE8       30.35F
PHOENIX, AZ    CLEAR     74  56  53 E6        29.89S
PORTLAND, OR   CLOUDY    51  48  89 S16       29.97R
RENO, NV       PTCLDY    45  30  55 CALM      30.10R
SALT LAKE CITY MOCLDY    61  33  35 NW12      29.95R
SAN DIEGO, CA  MOCLDY    67  61  81 CALM      30.02F
SAN FRANCISCO, CLEAR     62  57  83 W8        30.16S
SAN JOSE, CA   CLOUDY    56  51  84 CALM      30.16S
SEATTLE, WA    MOCLDY    50  43  77 S13G21    29.85R
TIJUANA, MEX   PTCLDY    64  57  77 N3        30.04

$$

STATION/POSITION TIME  TEMP    WIND        PRES    VSBY  WAVE
                       AIR SEA DIR/SP/G                  HT/PER
                 (UTC) (F)     (DEG/KT/KT) (MB)    (MI)  (FT/S)
POINT ARGUELLO B NOT AVBL
WEST SANTA BARBA 0900   63 63  330/ 21/ 25 1016.5F        14/14
POINT CONCEPTION NOT AVBL
EAST SANTA BARBA 0900   64 65  250/ 10/ 12 1016.0F
SANTA MONICA BAY 0900   67 70  290/  6/  8 1015.5S         5/11



USA.gov is the U.S. government's official web portal to all federal, state and local government web resources and services.